TimeCST,TemperatureF,Dew PointF,Humidity,Sea Level PressureIn,VisibilityMPH,Wind Direction,Wind SpeedMPH,Gust SpeedMPH,PrecipitationIn,Events,Conditions,WindDirDegrees,DateUTC
12:15 AM,44.2,37.0,76,30.19,7.0,ENE,3.5,-,N/A,,Mostly Cloudy,70,2012-11-08 06:15:00
12:35 AM,43.2,36.3,77,30.19,7.0,Calm,Calm,-,N/A,,Clear,0,2012-11-08 06:35:00
12:55 AM,42.4,37.0,81,30.19,7.0,Calm,Calm,-,N/A,,Clear,0,2012-11-08 06:55:00
1:15 AM,39.6,36.0,87,30.19,5.0,Calm,Calm,-,N/A,,Clear,0,2012-11-08 07:15:00
1:35 AM,39.2,36.3,89,30.20,5.0,Calm,Calm,-,N/A,,Clear,0,2012-11-08 07:35:00
1:55 AM,38.5,35.8,90,30.20,4.0,Calm,Calm,-,N/A,,Clear,0,2012-11-08 07:55:00
2:15 AM,38.3,36.0,91,30.20,4.0,Calm,Calm,-,N/A,,Clear,0,2012-11-08 08:15:00
2:35 AM,37.6,35.4,92,30.20,3.0,Calm,Calm,-,N/A,,Clear,0,2012-11-08 08:35:00
2:55 AM,37.4,35.4,93,30.20,2.0,Calm,Calm,-,N/A,,Clear,0,2012-11-08 08:55:00
3:15 AM,37.0,35.2,93,30.20,2.5,Calm,Calm,-,N/A,,Clear,0,2012-11-08 09:15:00
3:35 AM,36.5,34.7,93,30.21,2.5,Calm,Calm,-,N/A,,Clear,0,2012-11-08 09:35:00
3:55 AM,36.0,34.2,93,30.20,2.5,Calm,Calm,-,N/A,,Clear,0,2012-11-08 09:55:00
4:15 AM,35.6,34.0,94,30.21,2.0,Calm,Calm,-,N/A,,Clear,0,2012-11-08 10:15:00
4:35 AM,35.4,33.8,94,30.21,2.5,Calm,Calm,-,N/A,,Clear,0,2012-11-08 10:35:00
4:55 AM,35.1,33.6,94,30.22,1.5,Calm,Calm,-,N/A,,Mist,0,2012-11-08 10:55:00
5:15 AM,34.7,33.1,94,30.22,3.0,Calm,Calm,-,N/A,,Clear,0,2012-11-08 11:15:00
5:35 AM,34.7,33.3,94,30.22,2.0,Calm,Calm,-,N/A,,Clear,0,2012-11-08 11:35:00
5:55 AM,34.2,32.7,94,30.23,1.0,Calm,Calm,-,N/A,,Mist,0,2012-11-08 11:55:00
6:15 AM,33.8,32.4,94,30.23,2.5,Calm,Calm,-,N/A,,Clear,0,2012-11-08 12:15:00
6:35 AM,33.3,32.0,95,30.23,2.5,Calm,Calm,-,N/A,,Clear,0,2012-11-08 12:35:00
6:55 AM,33.1,32.0,96,30.23,2.5,Calm,Calm,-,N/A,,Clear,0,2012-11-08 12:55:00
7:15 AM,33.6,32.2,94,30.24,1.8,Calm,Calm,-,N/A,,Mist,0,2012-11-08 13:15:00
7:35 AM,34.7,33.1,94,30.24,2.0,Calm,Calm,-,N/A,,Clear,0,2012-11-08 13:35:00
7:55 AM,36.3,34.7,94,30.25,1.8,Calm,Calm,-,N/A,,Mist,0,2012-11-08 13:55:00
8:15 AM,39.0,37.4,94,30.25,2.0,Calm,Calm,-,N/A,,Clear,0,2012-11-08 14:15:00
8:35 AM,41.7,39.7,93,30.26,3.0,Calm,Calm,-,N/A,,Scattered Clouds,0,2012-11-08 14:35:00
8:55 AM,43.7,39.6,85,30.26,5.0,Calm,Calm,-,N/A,,Scattered Clouds,0,2012-11-08 14:55:00
9:15 AM,45.7,39.6,79,30.26,5.0,South,4.6,-,N/A,,Haze,180,2012-11-08 15:15:00
9:35 AM,46.6,37.0,69,30.26,7.0,South,4.6,-,N/A,,Clear,180,2012-11-08 15:35:00
9:55 AM,47.3,37.4,68,30.26,7.0,SSW,9.2,-,N/A,,Scattered Clouds,200,2012-11-08 15:55:00
10:15 AM,47.1,37.0,68,30.26,7.0,South,6.9,-,N/A,,Scattered Clouds,170,2012-11-08 16:15:00
10:35 AM,48.0,37.9,68,30.26,7.0,South,5.8,-,N/A,,Scattered Clouds,190,2012-11-08 16:35:00
10:55 AM,48.9,36.9,63,30.24,10.0,SSW,8.1,-,N/A,,Scattered Clouds,210,2012-11-08 16:55:00
11:15 AM,50.5,36.9,59,30.23,10.0,South,9.2,-,N/A,,Scattered Clouds,190,2012-11-08 17:15:00
11:35 AM,50.9,36.0,57,30.23,10.0,SW,8.1,-,N/A,,Mostly Cloudy,220,2012-11-08 17:35:00
11:55 AM,52.3,36.7,55,30.22,10.0,SSW,6.9,-,N/A,,Mostly Cloudy,210,2012-11-08 17:55:00
12:15 PM,51.8,35.2,53,30.21,10.0,South,5.8,-,N/A,,Scattered Clouds,190,2012-11-08 18:15:00
12:35 PM,52.0,34.9,52,30.20,10.0,Calm,Calm,-,N/A,,Clear,0,2012-11-08 18:35:00
12:55 PM,52.9,35.6,52,30.18,10.0,South,3.5,-,N/A,,Clear,170,2012-11-08 18:55:00
1:15 PM,53.6,36.0,51,30.18,10.0,South,8.1,-,N/A,,Clear,170,2012-11-08 19:15:00
1:35 PM,53.6,34.9,49,30.18,10.0,South,6.9,-,N/A,,Clear,190,2012-11-08 19:35:00
1:55 PM,53.8,34.2,47,30.17,10.0,South,4.6,-,N/A,,Clear,180,2012-11-08 19:55:00
2:15 PM,54.5,35.4,49,30.16,10.0,SSE,10.4,-,N/A,,Clear,160,2012-11-08 20:15:00
2:35 PM,54.5,34.9,48,30.15,10.0,South,8.1,-,N/A,,Clear,180,2012-11-08 20:35:00
2:55 PM,54.5,34.5,47,30.15,10.0,South,6.9,-,N/A,,Clear,170,2012-11-08 20:55:00
3:15 PM,54.5,34.7,47,30.15,10.0,SSE,5.8,-,N/A,,Clear,160,2012-11-08 21:15:00
3:35 PM,54.5,34.2,46,30.15,10.0,South,8.1,-,N/A,,Clear,170,2012-11-08 21:35:00
3:55 PM,53.6,33.8,47,30.15,10.0,South,6.9,-,N/A,,Clear,170,2012-11-08 21:55:00
4:15 PM,53.6,33.4,46,30.15,10.0,South,4.6,-,N/A,,Clear,170,2012-11-08 22:15:00
4:35 PM,52.9,34.0,49,30.15,10.0,South,4.6,-,N/A,,Clear,170,2012-11-08 22:35:00
4:55 PM,51.8,34.0,51,30.15,10.0,SSE,3.5,-,N/A,,Clear,160,2012-11-08 22:55:00
5:15 PM,50.7,34.2,53,30.14,10.0,SSE,3.5,-,N/A,,Clear,150,2012-11-08 23:15:00
5:35 PM,50.0,34.3,55,30.14,10.0,SE,3.5,-,N/A,,Clear,140,2012-11-08 23:35:00
5:55 PM,48.9,34.3,57,30.15,10.0,SE,3.5,-,N/A,,Clear,140,2012-11-08 23:55:00
6:15 PM,48.2,34.3,59,30.15,10.0,Calm,Calm,-,N/A,,Clear,0,2012-11-09 00:15:00
6:35 PM,47.5,34.5,61,30.15,10.0,Calm,Calm,-,N/A,,Clear,0,2012-11-09 00:35:00
6:55 PM,48.4,34.5,59,30.15,10.0,SSE,3.5,-,N/A,,Clear,160,2012-11-09 00:55:00
7:15 PM,46.6,34.7,63,30.15,10.0,SE,3.5,-,N/A,,Clear,140,2012-11-09 01:15:00
7:35 PM,46.2,34.7,64,30.14,10.0,SE,4.6,-,N/A,,Clear,140,2012-11-09 01:35:00
7:55 PM,47.3,34.5,61,30.14,10.0,SE,4.6,-,N/A,,Clear,140,2012-11-09 01:55:00
8:15 PM,48.2,33.8,58,30.13,10.0,SSE,5.8,-,N/A,,Clear,150,2012-11-09 02:15:00
8:35 PM,47.3,34.3,61,30.13,10.0,SSE,4.6,-,N/A,,Clear,160,2012-11-09 02:35:00
8:55 PM,46.6,34.3,62,30.13,10.0,SSE,4.6,-,N/A,,Clear,160,2012-11-09 02:55:00
9:15 PM,46.4,34.3,63,30.13,10.0,SSE,3.5,-,N/A,,Clear,160,2012-11-09 03:15:00
9:35 PM,46.0,34.7,65,30.13,10.0,SSE,4.6,-,N/A,,Clear,160,2012-11-09 03:35:00
9:55 PM,46.4,35.6,66,30.13,10.0,South,4.6,-,N/A,,Clear,170,2012-11-09 03:55:00
10:15 PM,45.9,34.7,65,30.12,10.0,South,4.6,-,N/A,,Clear,170,2012-11-09 04:15:00
10:35 PM,45.9,34.7,65,30.12,10.0,SSE,4.6,-,N/A,,Clear,150,2012-11-09 04:35:00
10:55 PM,45.5,34.3,65,30.12,10.0,SSE,4.6,-,N/A,,Clear,150,2012-11-09 04:55:00
11:15 PM,44.6,34.5,68,30.12,10.0,SE,3.5,-,N/A,,Clear,140,2012-11-09 05:15:00
11:35 PM,44.1,34.3,69,30.11,10.0,SE,3.5,-,N/A,,Clear,140,2012-11-09 05:35:00
11:55 PM,44.1,34.3,69,30.11,10.0,SE,4.6,-,N/A,,Clear,140,2012-11-09 05:55:00